Hourly Data Report for October 08, 2014

All times are specified in Local Standard Time (LST). Add 1 hour to adjust for Daylight Saving Time where and when it is observed.

BATHURST A
NEW BRUNSWICK

47°37'47.000" N
65°44'20.000" W
58.80 m
8100505
71574
ZBF

Download Data

Hourly Data (October 2014)
Hourly Data Report for October 8, 2014
Temp Definition
°C
Dew Point Temp Definition
°C
Rel Hum Definition
%
Wind Dir Definition
10's deg

Wind Spd Definition
km/h
Visibility Definition
km
Stn Press Definition
kPa
Hmdx Definition


Wind Chill Definition


Weather Definition


TIME
00:00 Legend Double Dagger 12.4 8.1 75 20 13 24.1 101.13     LegendNANA
01:00 Legend Double Dagger 11.4 9.0 85 20 9 16.1 101.14     Rain Showers
02:00 Legend Double Dagger 10.6 9.2 91 36 3 24.1 101.10     Mostly Cloudy
03:00 Legend Double Dagger 10.3 9.4 94 21 7 24.1 101.06     LegendNANA
04:00 Legend Double Dagger 10.3 9.5 95 21 7 24.1 101.03     LegendNANA
05:00 Legend Double Dagger 10.6 10.0 96 20 7 16.1 100.93     Cloudy
06:00 Legend Double Dagger 10.8 10.2 96 21 7 16.1 100.88     LegendNANA
07:00 Legend Double Dagger 11.0 10.4 96 18 9 16.1 100.83     LegendNANA
08:00 Legend Double Dagger 11.3 10.9 97 16 7 8.1 100.76     Rain Showers,Fog
09:00 Legend Double Dagger 11.9 11.3 96 17 8 8.1 100.71     Fog
10:00 Legend Double Dagger 13.1 11.8 92 16 10 16.1 100.62     LegendNANA
11:00 Legend Double Dagger 14.4 12.3 87 17 14 24.1 100.49     Cloudy
12:00 Legend Double Dagger 16.1 12.9 81 17 11 24.1 100.35     LegendNANA
13:00 Legend Double Dagger 17.4 12.4 72 14 8 24.1 100.12     LegendNANA
14:00 Legend Double Dagger 15.6 12.8 83 20 16 16.1 100.14     Moderate Rain Showers
15:00 Legend Double Dagger 14.8 14.0 95 13 12 8.1 99.95     Rain Showers,Fog
16:00 Legend Double Dagger 14.3 13.5 95 15 13 6.4 99.79     Moderate Rain Showers,Fog
17:00 Legend Double Dagger 14.2 13.6 96 14 11 8.1 99.65     Rain Showers,Fog
18:00 Legend Double Dagger 14.7 14.2 97 13 7 4.8 99.51     Moderate Rain Showers,Fog
19:00 Legend Double Dagger 15.3 14.7 96 19 10 12.9 99.43     Rain Showers
20:00 Legend Double Dagger 15.4 14.6 95 19 12 24.1 99.42     Mostly Cloudy
21:00 Legend Double Dagger 13.2 11.6 90 21 8 24.1 99.45     LegendNANA
22:00 Legend Double Dagger 12.9 11.7 92 21 9 24.1 99.48     LegendNANA
23:00 Legend Double Dagger 12.9 10.1 83 22 14 24.1 99.50     Mostly Cloudy

Notes on Data Quality.

Legend

  • E = Estimated
  • M = Missing
  • NA = Not Available
  • ‡ = Partner data that is not subject to review by the National Climate Archives
Date modified: